[TLELIST] Archives

 

[TLELIST] Current TLEs

April 6th 2026 PDT

0 HST 1 20580U 90037B 26096.01760897 .00009415 00000-0 30752-3 0 9994 2 20580 28.4724 213.5163 0002291 74.0857 285.9991 15.29950026777508 0 ISS (ZARYA) 1 25544U 98067A 26096.00498673 .00007825 00000-0 15107-3 0 9999 2 25544 51.6327 297.3095 0006350 277.1679 82.8588 15.48794122560568 0 CXO 1 25867U 99040B 26097.97612176 .00000867 00000-0 00000-0 0 9994 2 25867 55.0160 118.7490 7949842 310.6166 0.2827 0.37800804 17066 ...Continue Reading

[TLELIST] Current TLEs

April 5th 2026 PDT

0 HST 1 20580U 90037B 26094.64776769 .00011124 00000-0 36493-3 0 9994 2 20580 28.4724 222.8665 0002193 61.0619 299.0197 15.29923140777298 0 ISS (ZARYA) 1 25544U 98067A 26095.03712624 .00009326 00000-0 17854-3 0 9995 2 25544 51.6327 302.0967 0006295 273.6206 86.4063 15.48778120560417 0 CXO 1 25867U 99040B 26097.97432086 .00000867 00000-0 00000-0 0 9994 2 25867 55.0160 118.7491 7949849 310.6166 0.0374 0.37800700 17053 ...Continue Reading

[TLELIST] Current TLEs

April 4th 2026 PDT

0 HST 1 20580U 90037B 26093.66929401 .00012406 00000-0 40809-3 0 9998 2 20580 28.4724 229.5454 0002132 51.9469 308.1319 15.29899616777144 0 ISS (ZARYA) 1 25544U 98067A 26094.06925453 .00011847 00000-0 22464-3 0 9997 2 25544 51.6326 306.8840 0006251 269.7954 90.2318 15.48758130560264 0 CXO 1 25867U 99040B 26095.33038449 .00000781 00000-0 00000-0 0 9992 2 25867 54.9818 118.8093 7953036 310.6470 0.0525 0.37805440 17044 ...Continue Reading

[TLELIST] Current TLEs

April 3rd 2026 PDT

0 HST 1 20580U 90037B 26093.08220152 .00012851 00000-0 42314-3 0 9998 2 20580 28.4722 233.5527 0002097 46.0516 314.0252 15.29886463777054 0 ISS (ZARYA) 1 25544U 98067A 26093.10136821 .00012012 00000-0 22784-3 0 9994 2 25544 51.6327 311.6710 0006237 265.7481 94.2795 15.48735493560114 0 CXO 1 25867U 99040B 26095.33038449 .00000781 00000-0 00000-0 0 9992 2 25867 54.9818 118.8093 7953036 310.6470 0.0525 0.37805440 17044 ...Continue Reading

[TLELIST] Current TLEs

April 2nd 2026 PDT

0 HST 1 20580U 90037B 26092.10370228 .00009025 00000-0 29535-3 0 9999 2 20580 28.4722 240.2324 0002043 36.1686 323.9047 15.29860039776908 0 ISS (ZARYA) 1 25544U 98067A 26092.13346771 .00010892 00000-0 20755-3 0 9993 2 25544 51.6331 316.4579 0006240 262.1298 97.8982 15.48713693559962 0 CXO 1 25867U 99040B 26092.68652473 .00000738 00000-0 00000+0 0 9997 2 25867 54.9638 118.8603 7957023 310.6798 0.0859 0.37810289 17041 ...Continue Reading

[TLELIST] Current TLEs

April 2nd 2026 PDT

0 HST 1 20580U 90037B 26092.10370228 .00009025 00000-0 29535-3 0 9999 2 20580 28.4722 240.2324 0002043 36.1686 323.9047 15.29860039776908 0 ISS (ZARYA) 1 25544U 98067A 26092.13346771 .00010892 00000-0 20755-3 0 9993 2 25544 51.6331 316.4579 0006240 262.1298 97.8982 15.48713693559962 0 CXO 1 25867U 99040B 26092.68652473 .00000738 00000-0 00000+0 0 9997 2 25867 54.9638 118.8603 7957023 310.6798 0.0859 0.37810289 17041 ...Continue Reading

[TLELIST] Current TLEs

April 1st 2026 PDT

0 HST 1 20580U 90037B 26091.12518911 .00010706 00000-0 35185-3 0 9999 2 20580 28.4719 246.9114 0001974 26.3027 333.7668 15.29843870776751 0 ISS (ZARYA) 1 25544U 98067A 26091.10102623 .00008862 00000-0 17059-3 0 9992 2 25544 51.6334 321.5639 0006224 257.9417 102.0874 15.48690056559805 0 CXO 1 25867U 99040B 26092.68652473 .00000738 00000-0 00000+0 0 9997 2 25867 54.9638 118.8603 7957023 310.6798 0.0859 0.37810289 17041 ...Continue Reading

[TLELIST] Current TLEs

March 31st 2026 PDT

0 HST 1 20580U 90037B 26090.14666398 .00010310 00000-0 33878-3 0 9991 2 20580 28.4719 253.5904 0001890 15.8116 344.2539 15.29823594776600 0 ISS (ZARYA) 1 25544U 98067A 26090.13309952 .00011434 00000-0 21777-3 0 9999 2 25544 51.6341 326.3497 0006203 253.7499 106.2807 15.48671303559658 0 CXO 1 25867U 99040B 26092.68652474 .00000738 00000-0 00000-0 0 9999 2 25867 54.9638 118.8603 7957023 310.6798 0.0859 0.37810289 17041 ...Continue Reading

[TLELIST] Current TLEs

March 30th 2026 PDT

0 HST 1 20580U 90037B 26089.16812659 .00010500 00000-0 34538-3 0 9999 2 20580 28.4719 260.2692 0001806 5.3681 354.6933 15.29803034776450 0 ISS (ZARYA) 1 25544U 98067A 26089.16515940 .00012299 00000-0 23377-3 0 9994 2 25544 51.6344 331.1363 0006182 249.8595 110.1729 15.48649503559504 0 CXO 1 25867U 99040B 26090.04236321 .00000780 00000-0 00000+0 0 9992 2 25867 54.9448 118.9145 7963177 310.7103 0.1107 0.37810947 17026 ...Continue Reading

[TLELIST] Current TLEs

March 29th 2026 PDT

0 HST 1 20580U 90037B 26088.18957586 .00010418 00000-0 34286-3 0 9997 2 20580 28.4724 266.9491 0001756 354.8838 5.1740 15.29783443776305 0 ISS (ZARYA) 1 25544U 98067A 26088.13267411 .00012260 00000-0 23326-3 0 9999 2 25544 51.6344 336.2407 0006215 245.2164 114.8178 15.48624340559341 0 CXO 1 25867U 99040B 26090.04236321 .00000780 00000-0 00000+0 0 9992 2 25867 54.9448 118.9145 7963177 310.7103 0.1107 0.37810947 17026 ...Continue Reading
  • This mailing list is a public mailing list - anyone may join or leave, at any time.
  • This mailing list is announce-only.

International Space Station (ISS) / Hubble Space Telescope (HST) / Chandra X-Ray Observatory Orbital Data via EMAIL

Privacy Policy:

Private list